Hourly Data Report for October 18, 2016

All times are specified in Local Standard Time (LST). Add 1 hour to adjust for Daylight Saving Time where and when it is observed.

CHARLOTTETOWN A
PRINCE EDWARD ISLAND

46°17'21.000" N
63°07'09.000" W
48.50 m
8300301
71706
YYG

Download Data

Hourly Data (October 2016)
Hourly Data Report for October 18, 2016
Temp Definition
°C
Dew Point Temp Definition
°C
Rel Hum Definition
%
Wind Dir Definition
10's deg

Wind Spd Definition
km/h
Visibility Definition
km
Stn Press Definition
kPa
Hmdx Definition


Wind Chill Definition


Weather Definition


TIME
00:00 Legend Double Dagger 10.0 6.9 81 33 9 24.1 100.65     LegendNANA
01:00 Legend Double Dagger 9.5 5.1 74 35 10 24.1 100.71     LegendNANA
02:00 Legend Double Dagger 9.3 4.7 73 33 9 24.1 100.78     Mostly Cloudy
03:00 Legend Double Dagger 9.2 4.2 71 35 8 24.1 100.85     LegendNANA
04:00 Legend Double Dagger 7.9 4.1 77 34 8 24.1 100.92     LegendNANA
05:00 Legend Double Dagger 7.8 4.2 78 36 13 24.1 100.99     Mostly Cloudy
06:00 Legend Double Dagger 8.7 5.1 78 35 13 24.1 101.02     LegendNANA
07:00 Legend Double Dagger 8.3 4.9 79 1 13 24.1 101.08     LegendNANA
08:00 Legend Double Dagger 8.7 5.6 81 2 14 24.1 101.15     Mostly Cloudy
09:00 Legend Double Dagger 9.2 6.1 81 36 8 24.1 101.32     LegendNANA
10:00 Legend Double Dagger 9.5 6.2 80 3 4 24.1 101.36     LegendNANA
11:00 Legend Double Dagger 10.0 7.1 82 26 5 24.1 101.37     Cloudy
12:00 Legend Double Dagger 10.7 7.2 79 14 5 24.1 101.30     LegendNANA
13:00 Legend Double Dagger 9.4 8.2 92 9 15 12.9 101.29     Drizzle
14:00 Legend Double Dagger 9.2 8.1 93 9 10 19.3 101.30     Drizzle
15:00 Legend Double Dagger 9.3 7.9 91 12 17 24.1 101.24     LegendNANA
16:00 Legend Double Dagger 9.2 7.7 90 13 13 24.1 101.21     LegendNANA
17:00 Legend Double Dagger 9.2 6.7 84 12 17 24.1 101.19     Mostly Cloudy
18:00 Legend Double Dagger 8.8 6.4 85 12 18 24.1 101.11     LegendNANA
19:00 Legend Double Dagger 8.9 6.7 86 13 17 24.1 101.10     LegendNANA
20:00 Legend Double Dagger 9.4 7.0 85 14 23 24.1 100.97     Cloudy
21:00 Legend Double Dagger 11.0 6.4 73 16 36 24.1 100.81     LegendNANA
22:00 Legend Double Dagger 10.8 6.6 75 16 36 24.1 100.71     LegendNANA
23:00 Legend Double Dagger 11.2 7.4 77 16 37 24.1 100.61     Cloudy

Notes on Data Quality.

Legend

  • E = Estimated
  • M = Missing
  • NA = Not Available
  • ‡ = Partner data that is not subject to review by the National Climate Archives
Date modified: